Altoona, PA

1:43 PM EST on November 21, 2019 (GMT -0500)
Altoona-Blair County

Weather History for KAOO - September, 2019

Change the Weather History Date:

Monday, September 30, 2019

  Actual Average Record
Temperature  
Mean Temperature 64 °F 56 °F  
Max Temperature 66 °F 67 °F 91 °F (1953)
Min Temperature 61 °F 46 °F 31 °F (1993)
Degree Days  
Heating Degree Days 1 9  
Month to date heating degree days 33 147  
Since 1 July heating degree days 42 180  
Cooling Degree Days 0 1  
Month to date cooling degree days 88 47  
Year to date cooling degree days 733 526  
Growing Degree Days 14 (Base 50)    
Moisture  
Dew Point 61 °F    
Average Humidity 86    
Maximum Humidity 93    
Minimum Humidity 78    
Precipitation  
Precipitation 0.06 in 0.11 in 2.77 in (2010)
Month to date precipitation 1.21 3.46  
Year to date precipitation 30.90 27.39  
Sea Level Pressure  
Sea Level Pressure 30.21 in    
Wind  
Wind Speed 3 mph (SSE)    
Max Wind Speed 10 mph    
Max Gust Speed 14 mph    
Visibility 7 miles    
Events Rain    
T = Trace of Precipitation, MM = Missing Value Source: NWS Daily Summary

Daily Weather History Graph

Daily Weather History Graph

Search for Another Location

Airport or City:

Astronomy

Sep. 30, 2019 Rise Set
Actual Time 7:08 AM EDT 6:57 PM EDT
Civil Twilight 6:41 AM EDT 7:24 PM EDT
Nautical Twilight 6:09 AM EDT 7:56 PM EDT
Astronomical Twilight 5:37 AM EDT 8:27 PM EDT
Moon 9:10 AM EDT (9/30) 8:31 PM EDT (9/30)
Length of Visible Light 12h 43m
Length of Day
11h 49m
Waxing Crescent, 5% of the Moon is Illuminated
Sep 30
Waxing Crescent
Oct 5
First Quarter
Oct 13
Full
Oct 21
Last Quarter
Oct 27
New

Hourly Weather History & Observations

Time (EDT) Temp. Dew Point Humidity Pressure Visibility Wind Dir Wind Speed Gust Speed Precip Events Conditions
12:53 AM 63.0 °F 57.9 °F 84% 30.27 in 10.0 mi Calm Calm - N/A   Scattered Clouds
1:53 AM 63.0 °F 57.9 °F 84% 30.26 in 10.0 mi Calm Calm - N/A   Overcast
2:19 AM 64.0 °F 59.0 °F 84% 30.27 in 10.0 mi Calm Calm - N/A   Overcast
2:53 AM 64.0 °F 57.9 °F 80% 30.25 in 10.0 mi Calm Calm - N/A   Overcast
3:53 AM 63.0 °F 57.9 °F 84% 30.24 in 10.0 mi Calm Calm - 0.01 in   Overcast
4:53 AM 62.1 °F 57.9 °F 86% 30.23 in 10.0 mi Calm Calm - N/A   Overcast
5:53 AM 62.1 °F 55.9 °F 80% 30.23 in 10.0 mi Calm Calm - N/A   Overcast
6:53 AM 62.1 °F 57.0 °F 84% 30.24 in 10.0 mi Calm Calm - N/A   Overcast
7:53 AM 62.1 °F 55.9 °F 80% 30.26 in 7.0 mi Calm Calm - 0.03 in Rain Light Rain
8:53 AM 61.0 °F 57.9 °F 90% 30.27 in 10.0 mi East 3.5 mph - 0.00 in   Overcast
9:23 AM 61.0 °F 57.0 °F 87% 30.28 in 10.0 mi Calm Calm - 0.00 in Rain Light Rain
9:53 AM 62.1 °F 57.9 °F 86% 30.26 in 10.0 mi South 3.5 mph - 0.02 in Rain Light Rain
10:53 AM 63.0 °F 59.0 °F 87% 30.27 in 10.0 mi Calm Calm - 0.00 in   Overcast
11:14 AM 63.0 °F 60.1 °F 90% 30.27 in 9.0 mi Calm Calm - 0.00 in Rain Light Rain
11:53 AM 64.0 °F 60.1 °F 87% 30.25 in 10.0 mi SSE 4.6 mph - 0.00 in   Overcast
12:53 PM 64.9 °F 61.0 °F 87% 30.24 in 10.0 mi SSE 6.9 mph - N/A   Overcast
1:53 PM 64.0 °F 61.0 °F 90% 30.21 in 7.0 mi SSE 5.8 mph - N/A   Overcast
2:53 PM 64.9 °F 61.0 °F 87% 30.20 in 10.0 mi Variable 5.8 mph - N/A   Overcast
3:15 PM 64.9 °F 62.1 °F 90% 30.21 in 8.0 mi SSE 6.9 mph - N/A   Overcast
3:53 PM 64.9 °F 62.1 °F 90% 30.18 in 10.0 mi South 6.9 mph - N/A   Overcast
4:53 PM 66.0 °F 62.1 °F 87% 30.17 in 10.0 mi South 5.8 mph - N/A   Overcast
5:25 PM 64.9 °F 62.1 °F 90% 30.18 in 7.0 mi SSE 4.6 mph - N/A   Overcast
5:53 PM 64.9 °F 62.1 °F 90% 30.16 in 5.0 mi South 6.9 mph - N/A   Overcast
6:26 PM 64.9 °F 62.1 °F 90% 30.18 in 2.0 mi South 5.8 mph - N/A   Overcast
6:36 PM 64.0 °F 62.1 °F 93% 30.18 in 1.8 mi South 4.6 mph - N/A   Overcast
6:53 PM 64.0 °F 62.1 °F 93% 30.17 in 1.8 mi SSE 5.8 mph - N/A   Overcast
6:56 PM 64.0 °F 62.1 °F 93% 30.18 in 2.0 mi SSE 5.8 mph - N/A   Overcast
7:26 PM 64.0 °F 63.0 °F 96% 30.18 in 3.0 mi SSE 4.6 mph - N/A   Overcast
7:49 PM 64.4 °F 62.6 °F 94% 30.18 in 2.5 mi South 3.5 mph - N/A   Overcast
7:53 PM 64.0 °F 63.0 °F 96% 30.17 in 2.5 mi South 5.8 mph - N/A   Overcast
8:40 PM 64.9 °F 63.0 °F 93% 30.19 in 4.0 mi SSE 6.9 mph - N/A   Overcast
8:49 PM 64.4 °F 62.6 °F 94% 30.19 in 4.0 mi South 5.8 mph - N/A   Overcast
8:53 PM 64.9 °F 63.0 °F 93% 30.18 in 4.0 mi South 8.1 mph - N/A   Overcast
9:53 PM 64.9 °F 63.0 °F 93% 30.17 in 6.0 mi South 3.5 mph - N/A   Overcast
10:53 PM 64.9 °F 63.0 °F 93% 30.18 in 5.0 mi Calm Calm - N/A   Overcast
11:03 PM 64.9 °F 63.0 °F 93% 30.19 in 4.0 mi South 3.5 mph - N/A   Overcast
11:53 PM 64.9 °F 63.0 °F 93% 30.15 in 3.0 mi South 4.6 mph - N/A   Overcast